#timestamp,LO_Frequency,Hit,StdDev 
1643698815.7,286047002.4,N
1643698835.6,286046999.9,N
1643698855.4,286047000.9,N
1643698875.3,286047000.4,N
1643698895.1,286046998.1,N
1643698896.0,286046998.1,N
1643698915.8,286046998.8,N
1643698935.7,286046998.9,N
1643698955.5,286047001.1,N
1643698975.3,286046999.2,N
1643698995.2,286046999.5,N
1643699015.0,286046998.6,N
1643699015.9,286046998.6,N
1643699035.8,286046998.6,N
1643699055.6,286046999.0,N
1643699075.4,286046998.2,N
1643699095.3,286046998.1,N
1643699115.1,286047000.5,N
1643699135.9,286046998.8,N
1643699155.7,286046998.8,N
1643699175.5,286046998.5,N
1643699195.4,286046998.8,N
1643699215.2,286046998.9,N
1643699235.0,286046998.7,N
1643699235.9,286046998.7,N
1643699255.8,286046998.7,N
1643699275.6,286046998.6,N
1643699295.5,286046998.6,N
1643699315.3,286047002.8,N
1643699335.1,286047001.0,N
1643699355.9,286047000.0,N
1643699375.7,286047000.7,N
1643699395.5,286047000.9,N
1643699415.4,286047001.0,N
1643699435.2,286047000.5,N
1643699455.1,286046999.8,N
1643699456.0,286046999.8,N
1643699505.8,286047002.1,E
1643699515.8,286047002.6,N
1643699535.6,286046998.6,P
1643699555.4,286046998.1,N
1643699575.3,286047000.7,N
1643699595.1,286047001.2,N
1643699615.8,286046998.3,N
1643699635.7,286046996.6,N
1643699655.5,286046997.2,N
1643699675.4,286046999.2,N
1643699695.2,286047000.8,N
1643699715.0,286046998.7,N
1643699715.9,286046998.7,N
1643699735.8,286046999.3,N
1643699755.6,286046999.6,N
1643699775.4,286046996.5,N
1643699795.3,286046996.9,N
1643699815.1,286046998.7,N
1643699835.9,286046999.2,N
1643699855.7,286046999.2,N
1643699875.5,286047000.2,N
1643699895.4,286046998.4,N
1643699915.2,286046996.9,N
1643699935.0,286046999.3,N
1643699936.0,286046999.3,N
1643699955.8,286046999.6,N
1643699975.6,286046997.1,N
1643699995.5,286046994.9,Y
1643700015.3,286046997.1,P
1643700035.2,286046996.9,P
1643700055.9,286046996.5,P
1643700075.7,286046997.9,N
1643700095.6,286046997.2,Y
1643700115.4,286046998.8,P
1643700135.2,286046998.5,N
1643700155.1,286047000.1,N
1643700156.0,286047000.1,N
1643700175.8,286047000.1,N
1643700195.7,286047000.0,N
1643700215.5,286047002.3,N
1643700235.3,286047001.6,N
1643700255.2,286047002.1,N
1643700275.0,286047002.4,N
1643700275.9,286047002.4,N
1643700295.8,286047002.7,N
1643700315.6,286047002.0,N
1643700335.4,286047002.5,N
1643700355.3,286047002.1,N
1643700375.1,286047002.4,N
1643700395.8,286047002.1,N
1643700415.7,286047002.3,N
1643700435.5,286047002.7,N
1643700455.4,286047000.0,N
1643700475.2,286047000.3,N
1643700495.0,286047000.2,N
1643700495.9,286047000.2,N
1643700515.8,286046998.2,N
1643700535.6,286046999.7,N
1643700555.4,286046999.9,N
1643700575.3,286047002.5,N
1643700595.1,286047002.0,N
1643700615.9,286047001.3,N
1643700635.7,286047002.5,N
1643700655.5,286046999.7,N
1643700675.4,286047002.3,N
1643700695.2,286047000.3,N
1643700715.1,286047000.9,N
1643700716.0,286047000.9,N
1643700735.8,286047000.0,N
1643700755.6,286047001.2,N
1643700775.5,286046998.6,N
1643700795.3,286046999.3,N
1643700815.1,286046999.1,N
1643700835.9,286046999.4,N
1643700855.7,286046999.6,N
1643700875.6,286046999.3,N
1643700895.4,286046999.4,N
1643700915.2,286046999.2,N
1643700935.1,286046999.4,N
1643700936.0,286046999.4,N
1643700955.8,286046999.6,N
1643700975.7,286046999.5,N
1643700995.5,286046997.6,N
1643701015.3,286046995.4,Y
1643701035.2,286046997.5,P
1643701055.0,286046997.0,N
1643701055.9,286046997.0,N
1643701075.1,286046996.8,N
1643701095.9,286046995.0,Y
1643701115.7,286046998.7,P
1643701135.6,286046998.3,P
1643701155.4,286047000.5,N
1643701175.2,286046999.9,N
1643701195.1,286047000.6,N
1643701196.0,286047000.6,N
1643701215.8,286046999.8,N
1643701235.6,286047000.4,N
1643701255.5,286047000.3,N
1643701275.3,286047000.9,N
1643701295.2,286047001.2,N
1643701315.9,286047000.7,N
1643701335.7,286046999.9,N
1643701355.6,286047000.3,N
1643701375.4,286047000.9,N
1643701395.2,286047001.1,N
1643701415.1,286046998.1,N
1643701416.0,286046998.1,N
1643701435.8,286047001.2,N
1643701455.7,286047001.2,N
1643701475.5,286046998.3,N
1643701495.3,286047001.1,N
1643701515.2,286046999.0,N
1643701535.0,286046998.4,N
1643701535.9,286046998.4,N
1643701555.7,286046998.8,N
1643701575.6,286046998.5,N
1643701595.4,286046999.2,N
1643701615.3,286046996.5,Y
1643701635.1,286046996.7,P
1643701655.8,286046997.4,N
1643701675.7,286046997.2,N
1643701695.5,286046996.8,N
1643701715.4,286046997.8,N
1643701735.2,286046997.4,N
1643701755.0,286046996.7,Y
1643701755.9,286046996.7,P
1643701775.8,286047000.7,N
1643701795.6,286047000.4,N
1643701815.5,286047000.5,N
1643701835.3,286047000.9,N
1643701855.1,286046999.7,N
1643701875.9,286047002.7,N
1643701895.7,286046999.9,N
1643701915.5,286047000.3,N
1643701935.4,286047002.7,N
1643701955.2,286047000.2,N
1643701975.1,286047002.8,N
1643701976.0,286047002.8,N
1643701995.8,286046999.8,N
1643702015.6,286047000.4,N
1643702035.5,286047000.3,N
1643702055.3,286047002.4,N
1643702075.2,286047002.4,N
1643702095.9,286047000.0,N
1643702115.7,286047001.2,N
1643702135.6,286047000.8,N
1643702155.4,286047000.5,N
1643702175.2,286047000.1,N
1643702195.1,286047000.1,N
1643702196.0,286047000.1,N
1643702215.8,286046999.8,N
1643702235.7,286047002.4,N
1643702255.5,286047000.2,N
1643702305.4,286047002.4,E
1643702315.3,286047000.5,N
1643702335.1,286046998.4,P
1643702355.9,286046998.6,N
1643702375.7,286046998.3,N
1643702395.5,286046998.9,N
